George Downer Airport

Jump to: basic info | weather | frequencies | runways | comments

Related pages: nearby airports | nearby navaids | notams | map

Basic information (top)

Codes: AIV KAIV
Location: lon 33.106499, lat -88.197800, elev 150 ft / 46 m msl
Status: small_airport

Weather (top)

Current conditions for Golden Triangle Regional Airport 29nm (53km) NW (rec'd 2014/10/31 05:55Z):

KGTR 310555Z AUTO 00000KT 10SM BKN100 09/06 A3002 RMK AO1 10140 20080 57007

Airport forecast for Golden Triangle Regional Airport 29nm (53km) NW (rec'd 2014/10/31 06:27Z):

TAF KGTR 310525Z 3106/0106 25003KT P6SM SCT100 
     FM311400 33008KT P6SM SCT035 
     FM311800 33015G25KT P6SM BKN040 
     FM010200 34010KT P6SM SKC

Frequencies (top)

Verify before use: may be inaccurate or out of date.

UNIC: 122.8 MHz (CTAF/UNICOM)

Runways (top)

06/24: 4,970 x 80 ft (1,515 x 24 m) — paved — lighted — threshold 06 displaced 200 ft (61 m) — threshold 24 displaced 615 ft (187 m)

Latest comments (top)

No comments yet for George Downer Airport

More... (top)

See also NOTAMs and nearby airports and navaids, or visit the George Downer Airport page at the main OurAirports website..